Location: Garshuizen
(53.3675°N, 6.7248°E)
Time: 07:50:59
(UTC+00:00)

Meteor 1-11 Rocket - Pass Details

Date: 15 May 2026
Orbit: 829 x 915 km, 81.2° (Epoch: 5 June)

Event Time Altitude Azimuth Distance (km) Brightness Sun altitude
Rises 22:59:09 0° 345° (NNW) 3,464 8.6 -17.3°
Reaches altitude 10° 23:01:37 10° 344° (NNW) 2,509 7.4 -17.3°
Maximum altitude 23:07:18 78° 260° (W) 871 3.7 -17.4°
Enters shadow 23:10:11 30° 178° (S) 1,478 4.4 -17.5°
